Location: Rio Negrinho
(26.2394°S, 49.4999°W)
Time: 17:54:20
(UTC+00:00)

Hubble Space Telescope - Visible Passes

Search period start: 24 July 2021 00:00
Search period end: 03 August 2021 00:00
Orbit: 535 x 539 km, 28.5° (Epoch: 23 July)

Date Brightness Start Highest point End Pass type
(mag) Time Alt. Az. Time Alt. Az. Time Alt. Az.
24 Jul 3.6 08:37:34 10° N 08:39:27 13° NNE 08:41:19 10° NE visible
25 Jul 3.4 08:25:43 10° NNW 08:28:23 17° NNE 08:31:05 10° ENE visible
26 Jul 2.9 08:15:25 16° N 08:17:21 21° NNE 08:20:33 10° ENE visible
27 Jul 2.4 08:05:41 26° N 08:06:19 27° NNE 08:09:51 10° E visible
28 Jul 2.3 07:55:48 33° NE 07:55:48 33° NE 07:59:04 10° E visible
28 Jul 0.8 09:32:10 10° W 09:36:19 85° SSW 09:40:30 10° ESE visible
29 Jul 2.6 07:45:47 30° ENE 07:45:47 30° ENE 07:48:13 10° E visible
29 Jul 0.8 09:21:13 10° W 09:25:22 76° S 09:29:32 10° ESE visible
30 Jul 3.1 07:35:40 22° E 07:35:40 22° E 07:37:19 10° E visible
30 Jul 0.8 09:11:00 15° W 09:14:25 70° S 09:18:35 10° ESE visible
31 Jul 3.6 07:25:28 16° E 07:25:28 16° E 07:26:24 10° E visible
31 Jul 0.9 09:00:47 21° W 09:03:30 65° S 09:07:38 10° ESE visible
01 Aug 4.0 07:15:12 12° E 07:15:12 12° E 07:15:27 10° E visible
01 Aug 0.9 08:50:30 28° WSW 08:52:33 63° S 08:56:41 10° E visible
02 Aug 0.9 08:40:11 37° WSW 08:41:37 62° S 08:45:45 10° E visible
